User: anonymous   Login
Location: Unspecified
(0.0000°N, 0.0000°E)
Time: 00:17:50
(UTC+00:00)
Language:

OFEQ 7 - Orbit

View from above orbital plane
View from above orbital plane
View from above satellite
View from above satellite

Ground track
Ground track

The orbit data is extracted from the following two-line orbital elements,

1 31601U 07025A   17322.17877007 0.00003700  00000-0  14996-3 0    02
2 31601 141.7163 256.2186 0004818  34.8336 325.1656 15.23750844    01
Epoch (UTC): 18 November 2017 04:17:25
Eccentricity: 0.0004818
inclination: 141.7163°
perigee height: 491 km
apogee height: 498 km
right ascension of ascending node: 256.2186°
argument of perigee: 34.8336°
revolutions per day: 15.23750844
mean anomaly at epoch: 325.1656°
orbit number at epoch: 0

The dashed part of the orbit path shows where the satellite is in the earth's shadow,  

DLR